Regional Weather Roundup
Issued by NWS Midland/Odessa, TX

Home | Current Version | Previous Version | Text Only | Print | Product List | Glossary On
Versions: 1 2 3 4 5 6 7 8 9 10 11 12 13 14 15 16 17 18 19 20 21 22 23 24 25 26 27 28 29 30 31 32 33 34 35 36 37 38 39 40 41 42 43 44 45 46 47 48 49 50
000
ASUS44 KMAF 060310
RWRMAF
MIDLAND AREA WEATHER ROUNDUP
NATIONAL WEATHER SERVICE MIDLAND TX
1000 PM CDT SUN JUL 05 2015

...IN SOUTHWEST TEXAS AND SOUTHEAST NEW MEXICO...

CITY           SKY/WX    TMP DP  RH WIND       PRES   REMARKS
ALPINE         CLOUDY    78  61  55 SW12      30.15R
ANDREWS        FAIR      83  63  51 S13G20    29.96S
ARTESIA        MOCLDY    84  61  45 SW9       29.94S
BIG SPRING     CLEAR     85  61  44 SE15      29.96F
CARLSBAD       CLOUDY    87  61  41 S9        29.92R
DRYDEN           N/A     85  67  54 SE7       29.93R
FORT STOCKTON  MOCLDY    79  63  57 S15G23    29.96R
GUAD PASS      LGT RAIN  70  63  78 W20       30.15R
HOBBS          MOCLDY    82  63  51 S14G21    29.98R
MARFA          CLOUDY   N/A N/A N/A SW9       30.15R
MIDLAND AIRPK  CLEAR     84  64  49 S14       29.96R
MIDLAND INTL   CLEAR     84  64  50 S17       29.95R
ODESSA         CLEAR     84  63  49 S15       29.96R
PECOS          PTCLDY    85  62  45 SE13      29.91R
PRESIDIO       LGT RAIN  77  72  84 MISG      30.01R
SEMINOLE       CLEAR     83  63  50 S15G21    29.97S
SNYDER         CLEAR     82  65  57 S12       29.96R
WINK           PTCLDY    86  63  45 S18G28    29.92R
$$
...OTHER STATIONS IN TEXAS...

CITY           SKY/WX    TMP DP  RH WIND       PRES   REMARKS
ABILENE        CLEAR     84  63  49 SE10      29.95R
AMARILLO       CLOUDY    79  59  50 SE10      29.95S
AUSTIN         CLEAR     81  74  79 S10       30.00R
BROWNSVILLE    CLEAR     82  78  88 SE14      29.99R
CORPUS CHRISTI MOCLDY    82  77  84 SE16      29.99R
DALLAS FTW     PTCLDY    87  70  56 SE15      29.96R
DEL RIO        PTCLDY    86  69  56 E8        29.89S
EL PASO        MOCLDY    88  57  34 W17       29.99R
HOUSTON INT    PTCLDY    83  75  77 S10       30.05R
LUBBOCK        MOCLDY    83  65  54 SE16      29.95S
SAN ANGELO     CLEAR     84  65  52 S9        29.96R
SAN ANTONIO    MOCLDY    83  74  74 SE17      30.00R
WACO           CLEAR     84  70  62 S15       29.98R
WICHITA FALLS  NOT AVBL
$$
...OTHER LOCATIONS IN NEW MEXICO...

CITY           SKY/WX    TMP DP  RH WIND       PRES   REMARKS
ALAMAGORDO     MOCLDY    82  55  39 SE12G21   30.02R THUNDER
ALBUQUERQUE    CLOUDY    71  57  61 W8        30.12R
CANNON AFB     MOCLDY    78  59  51 S9        29.99R
CLOVIS         MOCLDY    79  57  47 S10         N/A
HOLLOMAN AFB   CLOUDY    77  64  64 N7        29.97F
ROSWELL        MOCLDY    81  58  45 SW7       29.93R
RUIDOSO        CLOUDY    66  59  77 W7        30.22S
SANTA FE       CLOUDY    67  55  65 NW13      30.17R
TRUTH OR CONSE CLOUDY    76  59  55 NW5       30.06R
TUCUMCARI      PTCLDY    85  56  37 S14       29.92R
$$


USA.gov is the U.S. government's official web portal to all federal, state and local government web resources and services.